Location: Bear Trap Landing
(45.2437°N, 67.7928°W)
Time: 02:54:16
(UTC+00:00)

X-37B - Pass Details

Date: 13 March 2021
Orbit: 380 x 394 km, 45.0° (Epoch: 07 April)

Event Time Altitude Azimuth Distance (km) Brightness Sun altitude
Rises 23:30:10 0° 232° (SW) 2,261 5.2 -10.5°
Reaches altitude 10° 23:32:19 10° 223° (SW) 1,412 3.9 -10.9°
Maximum altitude 23:35:15 34° 156° (SSE) 659 1.5 -11.4°
Enters shadow 23:36:54 20° 103° (ESE) 967 1.9 -11.7°
